Location: Marsån
(66.4167°N, 22.2833°E)
Time: 08:44:36
(UTC+00:00)

Cosmos 1680 Rocket - Pass Details

Date: 24 February 2024
Orbit: 757 x 779 km, 74.1° (Epoch: 20 April)

Event Time Altitude Azimuth Distance (km) Brightness Sun altitude
Rises 19:18:34 0° 315° (NW) 3,256 8.1 -23.4°
Reaches altitude 10° 19:20:57 10° 316° (NW) 2,330 7.0 -23.6°
Maximum altitude 19:26:16 80° 45° (NE) 796 3.4 -24.0°
Enters shadow 19:27:00 66° 112° (ESE) 850 3.4 -24.1°
